DAL367 KSNA-KSAN

Flight info

Callsign DAL367
Flight time N/A
Altitude 11000
Route PLYYA SARGS
Aircraft A20N/M-SDE2E3FGHIRWXY/LB1

Departure

Time 2026-04-30 04:16
Airport John Wayne Orange County International Airport (KSNA)

Arrival

Time N/A
Airport San Diego International Airport (KSAN)
Time Latitude Longitude Altitude Speed Heading
2026-04-30 04:09 33.67569 -117.86466 51 ft 0 kts 115°
2026-04-30 04:13 33.67571 -117.86470 58 ft 1 kts 115°
2026-04-30 04:13 33.67573 -117.86475 58 ft 1 kts 115°
2026-04-30 04:13 33.67575 -117.86481 58 ft 1 kts 114°
2026-04-30 04:14 33.67577 -117.86486 51 ft 1 kts 108°
2026-04-30 04:14 33.67576 -117.86508 59 ft 0 kts 20°
2026-04-30 04:14 33.67577 -117.86506 59 ft 2 kts 26°
2026-04-30 04:14 33.67621 -117.86476 56 ft 12 kts 30°
2026-04-30 04:15 33.67718 -117.86421 54 ft 19 kts 25°
2026-04-30 04:15 33.67851 -117.86356 54 ft 23 kts 19°
2026-04-30 04:15 33.67996 -117.86372 51 ft 22 kts 301°
2026-04-30 04:15 33.68065 -117.86542 50 ft 21 kts 268°
2026-04-30 04:16 33.67960 -117.86631 46 ft 47 kts 198°
2026-04-30 04:16 33.67414 -117.86980 58 ft 130 kts 209°
2026-04-30 04:16 33.66538 -117.87529 680 ft 144 kts 207°
2026-04-30 04:16 33.65533 -117.87894 1294 ft 169 kts 178°
2026-04-30 04:17 33.64415 -117.87616 2306 ft 160 kts 176°
2026-04-30 04:17 33.63288 -117.87457 3178 ft 169 kts 173°
2026-04-30 04:17 33.62042 -117.87234 3899 ft 191 kts 172°
2026-04-30 04:17 33.60658 -117.87000 4707 ft 210 kts 172°
2026-04-30 04:18 33.59139 -117.86766 5496 ft 230 kts 172°
2026-04-30 04:18 33.57468 -117.86524 6258 ft 253 kts 173°
2026-04-30 04:18 33.55641 -117.86267 7010 ft 273 kts 173°
2026-04-30 04:18 33.53726 -117.86000 8063 ft 279 kts 174°
2026-04-30 04:19 33.51781 -117.85728 9192 ft 285 kts 174°
2026-04-30 04:19 33.50454 -117.85544 9746 ft 300 kts 174°
2026-04-30 04:19 33.48238 -117.85238 9883 ft 339 kts 174°
2026-04-30 04:19 33.45913 -117.84918 10001 ft 373 kts 174°
2026-04-30 04:20 33.43678 -117.84607 10096 ft 399 kts 174°
2026-04-30 04:20 33.40857 -117.84211 10760 ft 409 kts 174°
2026-04-30 04:20 33.38006 -117.83812 11630 ft 418 kts 174°
2026-04-30 04:20 33.35030 -117.83398 11816 ft 442 kts 174°
2026-04-30 04:21 33.32056 -117.82981 12740 ft 411 kts 174°
2026-04-30 04:21 33.29258 -117.82587 12539 ft 413 kts 174°
2026-04-30 04:21 33.26320 -117.82183 12493 ft 434 kts 174°
2026-04-30 04:21 33.23322 -117.81768 12437 ft 430 kts 174°
2026-04-30 04:22 33.20398 -117.81361 12284 ft 416 kts 174°
2026-04-30 04:22 33.17614 -117.80974 12133 ft 400 kts 174°
2026-04-30 04:22 33.14934 -117.80363 11947 ft 384 kts 162°
2026-04-30 04:22 33.12602 -117.78953 11764 ft 370 kts 146°
2026-04-30 04:23 33.10725 -117.76948 11604 ft 355 kts 136°
2026-04-30 04:23 33.09054 -117.74986 11315 ft 345 kts 137°
2026-04-30 04:23 33.07354 -117.72990 11221 ft 347 kts 136°
2026-04-30 04:23 33.05648 -117.70991 11127 ft 349 kts 136°
2026-04-30 04:24 33.03924 -117.68972 11060 ft 347 kts 137°
2026-04-30 04:24 33.02213 -117.66969 11056 ft 348 kts 136°
2026-04-30 04:24 33.00475 -117.64936 11063 ft 347 kts 136°
2026-04-30 04:24 32.98761 -117.62936 11061 ft 342 kts 136°
2026-04-30 04:25 32.97063 -117.60953 11060 ft 343 kts 136°
2026-04-30 04:25 32.95357 -117.58962 11059 ft 344 kts 135°
2026-04-30 04:25 32.93929 -117.56695 11059 ft 344 kts 116°
2026-04-30 04:25 32.93290 -117.53955 11059 ft 346 kts 96°
2026-04-30 04:26 32.93235 -117.51088 11062 ft 347 kts 89°